This is the latest recevied weather packets stored in our database for station/object WX6HNX-14. If no packets are shown the sender has not sent any weather packets the latest 10 day(s).
| Time | Temp. | Humidity | Pressure | Rain* | Wind** | Luminosity | Snow |
|---|---|---|---|---|---|---|---|
| 1788151071 | 78° F | 43% | 757.7 mmHg | 0 in | - | - | - |
| 1788150772 | 78° F | 43% | 757.6 mmHg | 0 in | - | - | - |
| 1788150246 | 78° F | 43% | 757.6 mmHg | 0 in | - | - | - |
| 1788149946 | 78° F | 44% | 757.6 mmHg | 0 in | - | - | - |
| 1788149647 | 79° F | 43% | 757.6 mmHg | 0 in | - | - | - |
| 1788149346 | 79° F | 42% | 757.5 mmHg | 0 in | - | - | - |
| 1788149046 | 80° F | 41% | 757.6 mmHg | 0 in | - | - | - |
| 1788148746 | 80° F | 41% | 757.5 mmHg | 0 in | - | - | - |
| 1788148446 | 80° F | 41% | 757.5 mmHg | 0 in | - | - | - |
| 1788148146 | 81° F | 41% | 757.3 mmHg | 0 in | - | - | - |
| 1788147846 | 81° F | 41% | 757.3 mmHg | 0 in | - | - | - |
| 1788145038 | 85° F | 43% | 756.9 mmHg | 0 in | - | - | - |
| 1788143945 | 88° F | 34% | 756.8 mmHg | 0 in | - | - | - |
| 1788143485 | 89° F | 34% | 756.8 mmHg | 0 in | - | - | - |
| 1788143064 | 89° F | 33% | 756.7 mmHg | 0 in | - | - | - |
| 1788142764 | 89° F | 33% | 756.8 mmHg | 0 in | - | - | - |
| 1788142163 | 91° F | 32% | 756.7 mmHg | 0 in | - | - | - |
| 1788141864 | 91° F | 31% | 756.7 mmHg | 0 in | - | - | - |
| 1788141563 | 92° F | 31% | 756.8 mmHg | 0 in | - | - | - |
| 1788141263 | 92° F | 31% | 756.8 mmHg | 0 in | - | - | - |
| 1788140574 | 93° F | 29% | 756.9 mmHg | 0 in | - | - | - |
| 1788140273 | 93° F | 29% | 756.9 mmHg | 0 in | - | - | - |
| 1788139973 | 93° F | 28% | 756.9 mmHg | 0 in | - | - | - |
| 1788139675 | 93° F | 28% | 756.9 mmHg | 0 in | - | - | - |
| 1788139373 | 93° F | 28% | 757 mmHg | 0 in | - | - | - |
* Rain latest hour (hover to see other rain measurements)
** Current wind speed in m/s (hover to see current wind gust speed)